This demonstration page uses our WeatherBlox Daily Observations layout. Learn more.

Left ArrowRight Arrow

Hourly Observations for January 16, 2017

Temp ( °F °C ) Dew Point ( °F °C ) Humidity (%) Winds ( mph kmh ) Pressure ( in mb ) Visibility ( mi km ) Precip ( " mm )
12:15 am 00:15 Cloudy 32 0 32 0 100 100 E 5 7 30.33 1027 4 6.43736 N/A
12:35 am 00:35 Cloudy 32 0 32 0 100 100 E 3 6 30.33 1027 4 6.43736 N/A
12:56 am 00:56 Cloudy 34 1 32 0 93 93 E 6 9 30.33 1027 4 6.43736 N/A
1:15 am 01:15 Cloudy 34 1 32 0 93 93 E 6 9 30.3 1026 4 6.43736 N/A
1:35 am 01:35 Cloudy 34 1 32 0 93 93 ESE 6 9 30.3 1026 4 6.43736 N/A
1:55 am 01:55 Cloudy 34 1 32 0 93 93 ESE 5 7 30.3 1026 4 6.43736 N/A
2:15 am 02:15 Cloudy 34 1 32 0 93 93 E 6 9 30.3 1026 4 6.43736 N/A
2:35 am 02:35 Cloudy 34 1 32 0 93 93 E 5 7 30.3 1026 4 6.43736 N/A
2:55 am 02:55 Cloudy 34 1 32 0 93 93 ESE 6 9 30.3 1026 4 6.43736 N/A
3:15 am 03:15 Cloudy 34 1 32 0 93 93 ESE 6 9 30.3 1026 4 6.43736 N/A
3:35 am 03:35 Cloudy 34 1 32 0 93 93 E 3 6 30.3 1026 4 6.43736 N/A
3:55 am 03:55 Cloudy 34 1 32 0 93 93 ESE 5 7 30.3 1026 4 6.43736 N/A
4:15 am 04:15 Cloudy 34 1 32 0 93 93 ESE 5 7 30.3 1026 4 6.43736 N/A
4:35 am 04:35 Cloudy 34 1 32 0 93 93 ESE 6 9 30.3 1026 4 6.43736 N/A
4:55 am 04:55 Cloudy 34 1 34 1 100 100 SE 6 9 30.3 1026 4 6.43736 N/A
5:15 am 05:15 Cloudy 36 2 34 1 93 93 ESE 5 7 30.3 1026 4 6.43736 N/A
5:35 am 05:35 Cloudy 36 2 34 1 93 93 ESE 5 7 30.3 1026 4 6.43736 N/A
5:55 am 05:55 Cloudy 36 2 34 1 93 93 ESE 6 9 30.3 1026 3 4.82802 N/A
6:15 am 06:15 Cloudy 36 2 34 1 93 93 ESE 6 9 30.27 1025 2.5 4.02335 N/A
6:35 am 06:35 Cloudy 36 2 34 1 93 93 ESE 7 11 30.27 1025 2.5 4.02335 N/A
6:55 am 06:55 Cloudy 36 2 34 1 93 93 SE 6 9 30.3 1026 3 4.82802 N/A
7:15 am 07:15 Cloudy 36 2 36 2 100 100 ESE 7 11 30.27 1025 2.5 4.02335 N/A
7:35 am 07:35 Cloudy 36 2 36 2 100 100 SE 7 11 30.27 1025 3 4.82802 N/A
7:55 am 07:55 Cloudy 36 2 36 2 100 100 SE 7 11 30.27 1025 3 4.82802 N/A
8:15 am 08:15 Cloudy 36 2 36 2 100 100 SE 8 13 30.27 1025 3 4.82802 N/A
8:35 am 08:35 Cloudy 36 2 36 2 100 100 SE 8 13 30.27 1025 3 4.82802 N/A
8:55 am 08:55 Cloudy 37 3 36 2 93 93 SE 7 11 30.27 1025 2.5 4.02335 N/A
9:15 am 09:15 Cloudy 37 3 37 3 100 100 SSE 6 9 30.3 1026 3 4.82802 N/A
9:35 am 09:35 Cloudy 39 4 37 3 93 93 SSE 8 13 30.3 1026 3 4.82802 N/A
9:55 am 09:55 Cloudy 39 4 37 3 93 93 SSE 10 17 30.3 1026 4 6.43736 N/A
10:15 am 10:15 Cloudy 39 4 37 3 93 93 SSE 8 13 30.3 1026 3 4.82802 N/A
10:35 am 10:35 Cloudy 39 4 37 3 93 93 SE 6 9 30.27 1025 3 4.82802 N/A
10:56 am 10:56 Cloudy 39 4 37 3 93 93 SSE 9 15 30.27 1025 3 4.82802 N/A
11:15 am 11:15 Cloudy 39 4 39 4 100 100 SE 6 9 30.27 1025 3 4.82802 N/A
11:35 am 11:35 Cloudy 41 5 39 4 93 93 SE 7 11 30.24 1024 3 4.82802 N/A
11:55 am 11:55 Cloudy 43 6 41 5 93 93 SE 9 15 30.24 1024 4 6.43736 N/A
12:15 pm 12:15 Cloudy 43 6 41 5 93 93 SSE 8 13 30.21 1023 4 6.43736 N/A
12:35 pm 12:35 Cloudy 43 6 41 5 93 93 S 9 15 30.21 1023 4 6.43736 N/A
12:55 pm 12:55 Cloudy 43 6 41 5 93 93 SSE 7 11 30.21 1023 4 6.43736 N/A
1:15 pm 13:15 Cloudy 45 7 43 6 93 93 SSE 9 15 30.21 1023 4 6.43736 N/A
1:35 pm 13:35 Cloudy 45 7 43 6 93 93 SSE 10 17 30.21 1023 4 6.43736 N/A
1:55 pm 13:55 Cloudy 45 7 43 6 93 93 SSE 8 13 30.18 1022 4 6.43736 N/A
2:15 pm 14:15 Cloudy 46 8 45 7 93 93 SE 8 13 30.18 1022 5 8.0467 N/A
2:35 pm 14:35 Cloudy 46 8 45 7 93 93 SE 9 15 30.15 1021 5 8.0467 N/A
2:56 pm 14:56 Cloudy 46 8 45 7 93 93 SE 7 11 30.15 1021 4 6.43736 N/A
3:15 pm 15:15 Cloudy 46 8 46 8 100 100 SSE 7 11 30.15 1021 3 4.82802 N/A
3:35 pm 15:35 Cloudy 46 8 46 8 100 100 SE 6 9 30.15 1021 3 4.82802 N/A
3:55 pm 15:55 Cloudy 46 8 46 8 100 100 SSE 7 11 30.15 1021 2.5 4.02335 N/A
4:15 pm 16:15 Cloudy 48 9 46 8 94 94 SSE 7 11 30.15 1021 2.5 4.02335 N/A
4:36 pm 16:36 Cloudy 48 9 46 8 94 94 SSE 5 7 30.15 1021 3 4.82802 N/A
4:55 pm 16:55 Cloudy 48 9 46 8 94 94 SSE 5 7 30.15 1021 3 4.82802 N/A
5:15 pm 17:15 Cloudy 48 9 46 8 94 94 S 7 11 30.15 1021 5 8.0467 N/A
5:35 pm 17:35 Cloudy 48 9 46 8 94 94 S 6 9 30.15 1021 4 6.43736 N/A
5:55 pm 17:55 Cloudy 48 9 46 8 94 94 SSE 7 11 30.15 1021 3 4.82802 N/A
6:16 pm 18:16 Cloudy 48 9 46 8 94 94 SSE 7 11 30.12 1020 3 4.82802 N/A
6:35 pm 18:35 Cloudy 48 9 46 8 94 94 SSE 7 11 30.12 1020 3 4.82802 N/A
6:55 pm 18:55 Cloudy 48 9 46 8 94 94 SE 8 13 30.12 1020 3 4.82802 N/A
7:15 pm 19:15 Cloudy 48 9 46 8 94 94 SSE 6 9 30.12 1020 3 4.82802 N/A
7:35 pm 19:35 Cloudy 48 9 46 8 94 94 SE 9 15 30.12 1020 3 4.82802 N/A
7:56 pm 19:56 Cloudy 48 9 48 9 100 100 SE 9 15 30.09 1019 3 4.82802 N/A
8:15 pm 20:15 Cloudy 48 9 48 9 100 100 SE 10 17 30.09 1019 3 4.82802 N/A
8:35 pm 20:35 Cloudy 48 9 48 9 100 100 SE 9 15 30.09 1019 3 4.82802 N/A
8:55 pm 20:55 Cloudy 48 9 48 9 100 100 SE 10 17 30.06 1018 4 6.43736 N/A
9:15 pm 21:15 Cloudy 48 9 48 9 100 100 SE 12 19 30.06 1018 5 8.0467 N/A
9:36 pm 21:36 Cloudy 48 9 48 9 100 100 SE 9 15 30.06 1018 5 8.0467 N/A
9:55 pm 21:55 Cloudy 48 9 48 9 100 100 SSE 8 13 30.03 1017 5 8.0467 N/A
10:15 pm 22:15 Cloudy 48 9 48 9 100 100 S 9 15 30.06 1018 3 4.82802 N/A
10:35 pm 22:35 Cloudy 48 9 48 9 100 100 SSE 9 15 30.06 1018 3 4.82802 N/A
10:55 pm 22:55 Cloudy 48 9 48 9 100 100 SSE 7 11 30.03 1017 3 4.82802 N/A
11:15 pm 23:15 Cloudy 48 9 48 9 100 100 SSE 8 13 30.03 1017 3 4.82802 N/A
11:35 pm 23:35 Cloudy 48 9 48 9 100 100 SSE 7 11 30 1016 4 6.43736 N/A
11:55 pm 23:55 Cloudy 50 10 48 9 94 94 SSE 8 13 30 1016 4 6.43736 N/A

Powered by AerisWeather